GSAT0218 (PRN E31)

Last updated on Sat Jul 20 2024 00:03:12 GMT+0000 (Coordinated Universal Time)

1 43058U 17079D 24200.54138873 .00000081 00000+0 00000+0 0 9998 2 43058 55.3269 240.7310 0005719 266.6112 93.4211 1.70474505 41104
UTC large
Height (km)
Speed (km/s)
/
Latitude / Longitude
Inclination (degrees)
Orbital Period (minutes)
Azimuth
Elevation
Range (km)
Doppler Factor

Next 0 passes for location: London (51.5072 / 0.1276)

Sorry there are no passes over London.